SAMSAT-IONOSPHERE (RS7*)

Last updated on Mon Sep 21 2026 00:03:15 GMT+0000 (Coordinated Universal Time)

1 61784U 24199BB 26263.57075847 .00059727 00000+0 55566-3 0 9992 2 61784 97.2745 142.2422 0003531 284.6571 75.4298 15.67211640152459
UTC large
Height (km)
Speed (km/s)
/
Latitude / Longitude
Inclination (degrees)
Orbital Period (minutes)
Azimuth
Elevation
Range (km)
Doppler Factor

Next 0 passes for location: London (51.5072 / 0.1276)

No passes found over London.
SAMSAT-IONOSPHERE (RS7*)